CAPE
414 1226 1254 1500 1126 33 0 0 4 0 0 22 0 0 0 0 5 134 81 42 0 215 501 935 1771 1716 1388 1356 880 1339 1546 1440 1224 1183 1229 1316 1227 1053 915 970 824 911 798 882 1052 1001 1015 860 820
885 1189 1604 1648 161 8 0 0 0 40 183 106 0 39 26 312 411 487 42 41 27 97 521 548 1927 1901 1603 1366 1715 1476 1555 1570 1193 1064 1142 1354 1155 1045 1125 1042 961 1101 1246 1326 1534 1354 1166 1099 803
970 1492 1772 441 109 1 3 7 55 263 285 244 139 0 54 497 681 76 40 47 47 117 420 1212 1961 2058 1811 1625 1760 1797 1791 1502 1559 1189 1193 1122 1098 1210 1066 1264 1214 1339 1379 1314 1495 1461 1305 1184 839
1502 2134 1265 350 31 4 42 32 112 143 319 382 124 178 516 869 297 75 23 16 45 162 674 1799 2036 1898 2097 1913 1796 1955 1853 1883 1796 1493 1288 1226 1052 1188 1122 1084 1264 1004 1339 1031 1076 1117 1340 1176 874
702 276 167 107 72 124 65 29 67 287 425 447 353 263 543 752 650 47 18 0 24 164 737 1857 2086 1847 2164 1649 1863 1686 1991 1692 1694 1656 1543 1338 1239 1288 1391 1355 1361 1230 1190 982 1068 1275 1187 1176 980
236 261 198 93 62 50 37 64 91 147 203 555 505 568 816 1217 394 0 13 0 33 268 939 1447 2132 2037 1985 2135 1932 2120 1778 1730 1764 1637 1563 1477 1302 1341 1351 1405 1431 1249 1165 1365 1251 1153 894 1154 996
300 347 141 59 27 38 34 75 97 109 184 257 489 696 1141 1400 305 0 0 0 24 256 880 1584 1673 2233 2058 2009 2092 1975 2153 1922 1683 1730 1651 1779 1737 1505 1356 1326 1388 1304 1417 1178 1233 1198 688 933 1024
375 324 97 0 0 0 0 0 30 112 289 565 606 684 1250 1502 365 23 0 0 11 225 728 1270 1523 2018 1787 1709 1876 1658 1649 1890 1697 1633 1698 1648 1759 1739 1493 1280 1054 1201 1141 1385 1331 1052 668 1271 1107
486 106 85 83 0 0 0 0 0 156 191 411 509 716 967 1566 508 166 34 17 116 259 566 1122 1561 1817 2052 2006 1835 1831 1781 1709 1537 1728 1623 1765 935 1302 1505 1025 1078 1367 1375 1355 1299 1084 907 1210 1006
485 0 4 59 0 0 0 0 0 0 0 2 235 1192 1389 1550 887 642 309 302 327 299 409 674 1378 1654 1737 1869 1997 1695 1728 1554 1506 1597 1481 869 1261 1136 1025 932 1337 1441 1272 1294 1112 1115 880 543 303
201 0 0 7 0 0 0 0 0 0 0 0 0 368 1586 1656 1397 1074 770 434 392 323 463 825 1222 1355 1507 1056 1384 1522 1341 1158 1270 1707 1753 1770 1570 937 1005 904 579 923 960 455 604 573 489 3 73
27 0 0 0 0 0 0 0 0 0 0 0 0 0 1528 1662 1683 1602 1410 924 530 560 597 1071 1284 1220 1213 1022 986 903 832 831 1251 1398 1654 1785 1496 1028 1133 1031 371 325 399 571 47 172 243 198 127
0 0 0 0 0 0 0 0 0 0 0 0 0 0 721 1408 1656 1680 1631 1286 972 968 984 1139 1387 1348 1245 1070 841 765 605 590 853 1105 1033 1093 1201 1149 1145 1252 1067 476 35 811 219 553 602 322 102
0 0 0 0 0 0 0 0 0 0 0 0 0 0 72 1062 1455 1684 1739 1542 1272 1145 1113 1245 1435 1509 1420 1245 1231 1106 860 784 958 718 1226 1647 1483 1388 1256 1060 927 768 53 1222 439 389 292 244 26
0 0 0 0 0 0 0 0 0 0 0 0 0 6 107 346 1260 1648 1757 1667 1383 1162 1136 1237 1584 1590 1549 1389 1361 1217 948 870 602 594 1556 1769 1574 1397 1190 1097 860 518 596 277 959 1015 572 90 0
0 0 0 0 0 0 0 0 0 0 0 0 0 0 127 477 756 1561 1718 1740 1489 1040 1091 1282 1443 1504 1592 1469 1300 991 845 943 953 872 1372 1744 1839 1116 910 975 796 549 769 670 251 168 64 142 44
0 0 0 0 0 0 0 0 0 0 0 0 0 0 205 671 1082 1600 1668 1708 1614 1214 1168 1320 1445 1419 1575 1551 1284 997 900 1007 942 953 924 1361 2035 1529 1197 564 750 1011 712 865 749 420 166 38 47
0 0 0 0 0 0 0 0 0 0 0 0 0 10 168 606 1070 1699 1633 1613 1730 1668 1424 1477 1505 1543 1645 1540 1398 966 841 886 634 758 884 1006 1238 1353 1492 1024 739 1235 1140 1304 1187 1136 1011 648 238
0 0 0 0 0 0 0 0 0 0 0 0 0 96 437 708 1038 1457 1576 1596 1598 1830 1830 1627 1630 1689 1730 1551 1352 1150 1013 935 726 577 839 1133 1141 1278 1332 1039 1038 1426 1331 1428 1507 1474 1390 1301 1117
0 0 0 0 0 0 0 0 0 0 0 0 0 0 196 818 1082 1215 1432 1557 1519 1627 1868 2041 1929 1870 1855 1659 1480 1344 1237 1076 845 627 759 1236 1300 1213 1339 1193 966 1446 1422 1516 1602 1470 1158 1034 1115
0 0 0 0 0 0 0 0 0 0 0 0 0 0 0 80 491 983 1238 1327 1460 1884 1904 2077 2216 2192 2181 1527 1620 1317 1330 1223 873 654 665 873 1213 1423 1315 1201 1229 1228 1369 1112 1476 1476 1450 1210 1108
0 0 0 0 0 0 0 0 0 0 0 0 0 0 0 20 31 112 455 973 1244 1370 1541 2140 2304 2405 2434 2282 1624 1221 1256 1412 1084 920 600 676 942 1010 1232 1367 1335 1505 1328 1319 1166 1473 1373 1313 1134
0 0 0 0 0 0 0 0 0 0 0 0 0 0 0 0 98 406 230 257 354 392 1007 1537 2077 2592 2478 2516 2157 1680 1599 1582 1414 1144 1052 959 1188 1153 1142 1390 1324 1621 1690 1531 1476 1409 1477 1325 1210
0 0 0 0 0 0 0 0 0 0 0 0 0 0 0 9 34 223 562 590 830 830 615 672 1775 2416 2695 2490 2486 2263 2175 2004 1806 1533 1466 1372 1304 1338 1634 1586 1775 1917 1944 1848 1726 1676 1640 1628 1278
0 0 0 0 0 0 0 0 0 0 0 0 0 0 0 30 220 415 605 493 623 732 780 542 1056 1849 2262 2574 2559 2420 2388 2379 2449 2270 1803 1789 1668 1297 1516 1978 2058 1969 2217 1915 2035 1903 1781 1758 1574
0 0 0 0 0 0 0 0 0 0 0 0 0 3 9 17 19 203 266 305 413 489 706 615 873 1483 1974 2313 2484 2705 2586 2376 2279 2253 1990 1935 1815 1749 1726 2045 1916 1842 1829 2070 2197 1940 1745 1715 1373
0 0 0 0 0 0 0 0 0 0 0 0 0 0 9 34 39 149 352 380 515 412 652 707 957 1440 1872 2217 2392 2629 2729 2546 2347 2270 2483 2124 2192 1950 2030 2022 2035 1884 1832 1917 2068 1890 1777 1842 1316
0 0 0 0 0 0 0 0 0 0 0 0 0 0 8 67 45 105 308 350 520 446 564 792 892 1304 1469 2076 2124 2140 2333 2337 2276 2388 2273 2416 2232 2130 1956 2102 2194 2140 2010 1992 2102 1744 1778 1911 1461
0 0 0 0 0 0 0 0 5 0 0 0 0 0 3 39 81 125 223 357 493 537 533 744 721 910 1391 1658 1936 2459 2449 2300 2088 2219 2289 2178 2265 2441 2205 2023 2142 2272 2182 2275 2288 2165 1701 1601 1504
0 0 0 0 0 0 0 0 0 0 0 0 0 0 0 78 260 351 433 561 617 693 742 796 815 871 959 1113 1388 1376 1432 2077 2280 2397 2336 2233 2071 2080 2186 2082 2089 2177 2151 2074 2157 1957 1446 1341 1228
CIN
-458 -216 -239 -196 -26 -6 0 0 -4 0 0 -83 0 0 0 0 -2 -10 -80 -110 -4 -3 -12 -4 0 0 -3 0 -9 -7 0 0 0 0 0 0 0 0 -5 -4 -7 -2 -4 -3 -2 -2 -2 -5 -3
-263 -238 -190 -135 -5 -4 0 0 0 -42 -48 -59 0 -130 -66 -20 -42 -61 -105 -143 -96 -33 -8 -17 -1 0 0 -5 0 -7 0 0 -1 -1 0 0 0 0 0 -2 -3 0 0 0 0 0 0 0 -5
-281 -201 -96 -25 -13 -7 -16 -29 -20 -24 -33 -14 -37 0 -138 -35 -61 -97 -108 -158 -90 -30 -1 -4 -1 0 -2 -2 -1 -1 -1 0 0 0 0 0 0 0 0 0 -7 0 0 0 0 0 -1 0 -6
-185 -102 -87 -3 -4 -9 -22 -36 -15 -3 -15 -18 -45 -61 -74 -69 -96 -180 -138 -142 -109 -37 -1 -4 -1 -9 0 -3 0 -1 -3 0 0 0 0 0 0 0 0 0 -1 -6 0 -1 0 0 0 0 0
-162 -90 -3 -8 -8 -9 -31 -38 -18 -3 -18 -10 -11 -42 -68 -111 -116 -237 -176 0 -121 -47 -4 -1 -1 -5 0 -17 -10 -12 0 -2 0 0 0 0 0 -1 0 0 0 0 0 -1 0 0 -1 0 0
-72 -92 -3 -4 -9 -11 -11 -24 -20 -5 -14 -34 -29 -31 -58 -124 -178 0 -215 0 -95 -31 -5 -6 -5 -5 -5 -1 -4 0 -2 -1 0 0 0 -1 -1 -1 0 0 0 0 0 0 -2 0 0 0 0
-39 -13 -15 -10 -19 -10 -50 -33 -23 -30 -23 -32 -30 -9 -66 -95 -198 0 0 0 -121 -43 -4 -3 -5 0 -5 0 -1 -2 0 -1 -2 0 -1 0 0 0 0 -1 -1 0 0 -1 -2 0 -4 0 0
-80 -19 -43 0 0 0 0 0 -49 -24 -28 -47 -44 -5 -22 -80 -208 -281 0 0 -135 -75 -5 -2 -1 -1 0 -1 -3 -7 -1 -1 -1 -2 0 -1 0 0 0 -1 -5 -2 -1 -4 -1 0 -2 0 0
-101 -56 -50 -66 -3 0 0 0 0 -57 -33 -31 -19 -39 -45 -116 -232 -263 -295 -245 -170 -97 -28 -2 -2 -2 0 -1 -1 -1 -2 -3 -2 0 0 0 -1 -1 0 -1 -8 0 0 0 0 0 -2 0 -1
-23 0 -34 -105 -5 0 0 0 0 0 0 -31 -47 -115 -115 -175 -226 -225 -250 -214 -174 -137 -79 -22 -2 -1 -1 -1 -1 0 -1 -1 0 -1 0 -1 -1 -2 -1 -2 -3 0 0 0 0 0 -3 -21 -1
-79 0 0 -17 0 0 0 0 0 0 0 0 0 -72 -172 -185 -203 -205 -216 -196 -172 -147 -77 -32 -1 -2 -1 -2 -1 -1 -1 0 -1 -1 0 0 -3 -12 -5 -2 -20 -1 -1 -2 -2 -1 -1 -2 -12
-179 0 0 0 0 0 0 0 0 0 0 0 0 0 -174 -181 -181 -175 -164 -168 -174 -154 -98 -32 -4 -4 -1 -1 -2 -1 -1 -1 0 0 0 -1 -1 -8 -3 -3 -5 -4 -4 -1 -36 -13 -4 -5 -9
0 0 0 0 0 0 0 0 0 0 0 0 0 0 -118 -189 -174 -160 -135 -142 -140 -125 -94 -41 -21 -15 -12 -10 -3 -2 -9 -14 -1 -1 -5 -1 -1 -3 -1 -1 -2 -2 -78 -1 -8 -1 -1 -4 -21
0 0 0 0 0 0 0 0 0 0 0 0 0 0 -90 -159 -171 -156 -151 -152 -152 -145 -122 -72 -52 -42 -25 -22 -10 -9 -10 -8 -3 -7 0 0 -1 -2 -1 -1 -1 -2 -77 -2 -4 -9 -18 -23 -33
0 0 0 0 0 0 0 0 0 0 0 0 0 -91 -93 -103 -164 -170 -156 -157 -163 -167 -168 -133 -76 -62 -47 -53 -23 -19 -25 -19 -37 -21 0 -1 0 -1 -1 -1 -1 -2 -1 -24 -1 0 -5 -64 0
0 0 0 0 0 0 0 0 0 0 0 0 0 0 -91 -107 -118 -179 -190 -178 -190 -206 -209 -180 -137 -98 -66 -56 -67 -59 -39 -35 -26 -22 -2 -1 0 -3 -5 -1 -2 -6 -1 -4 -32 -63 -88 -57 -78
0 0 0 0 0 0 0 0 0 0 0 0 0 0 -97 -113 -160 -194 -227 -208 -201 -230 -247 -227 -195 -153 -88 -70 -68 -98 -74 -41 -34 -33 -41 -17 0 0 -3 -17 -3 0 -4 -2 -4 -23 -50 -87 -76
0 0 0 0 0 0 0 0 0 0 0 0 0 -85 -100 -128 -150 -219 -236 -210 -188 -227 -273 -238 -236 -213 -149 -87 -99 -136 -121 -93 -83 -77 -61 -64 -37 -13 0 -3 -5 -1 -3 -2 -5 -3 0 -4 -19
0 0 0 0 0 0 0 0 0 0 0 0 0 -108 -74 -86 -136 -188 -218 -175 -144 -164 -196 -225 -203 -211 -173 -182 -155 -159 -166 -139 -141 -131 -89 -57 -54 -28 -18 -9 -3 -1 -2 -1 -1 0 0 -1 -1
0 0 0 0 0 0 0 0 0 0 0 0 0 0 -115 -86 -124 -157 -155 -143 -164 -184 -159 -143 -185 -207 -221 -165 -185 -105 -99 -119 -144 -154 -114 -59 -54 -52 -26 -22 -8 -1 -1 -1 -1 -1 -4 -5 -2
0 0 0 0 0 0 0 0 0 0 0 0 0 0 0 -190 -167 -182 -146 -137 -118 -144 -157 -155 -158 -170 -162 -141 -77 -127 -93 -97 -183 -241 -214 -158 -94 -60 -58 -48 -16 -3 -1 -3 -1 -1 -1 -2 -5
0 0 0 0 0 0 0 0 0 0 0 0 0 0 0 -166 -225 -268 -210 -205 -192 -197 -188 -143 -136 -126 -84 -36 -80 -214 -243 -122 -168 -204 -233 -207 -162 -132 -86 -59 -40 -7 -3 -1 -4 -4 -1 -5 -2
0 0 0 0 0 0 0 0 0 0 0 0 0 0 0 0 -176 -182 -239 -285 -283 -320 -263 -192 -154 -108 -100 -43 -63 -164 -183 -83 -104 -99 -172 -212 -158 -154 -128 -77 -61 -18 -4 -1 -1 -1 -1 -7 -4
0 0 0 0 0 0 0 0 0 0 0 0 0 0 0 -127 -149 -171 -188 -225 -234 -245 -301 -338 -199 -127 -97 -79 -52 -60 -61 -54 -20 -121 -143 -128 -116 -125 -106 -85 -57 -42 -15 -6 -2 -3 -1 -1 -4
0 0 0 0 0 0 0 0 0 0 0 0 0 0 0 -113 -101 -109 -129 -195 -211 -230 -261 -319 -264 -150 -92 -73 -65 -66 -48 -20 -7 -17 -81 -48 -61 -107 -145 -100 -68 -43 -21 -9 -2 -1 -1 -1 -8
0 0 0 0 0 0 0 0 0 0 0 0 0 -68 -69 -111 -130 -128 -128 -172 -183 -214 -228 -268 -267 -160 -78 -52 -81 -67 -54 -49 -34 -35 -27 -24 -35 -49 -43 -85 -76 -53 -29 -11 0 -1 -1 -6 -18
0 0 0 0 0 0 0 0 0 0 0 0 0 0 -62 -134 -152 -137 -126 -165 -176 -201 -208 -243 -210 -157 -100 -53 -56 -67 -38 -29 -30 -33 -19 -8 -9 -14 -4 -31 -62 -50 -35 -14 -4 0 -1 -2 -30
0 0 0 0 0 0 0 0 0 -2 0 0 0 0 -84 -125 -141 -129 -108 -127 -147 -183 -182 -185 -198 -138 -139 -55 -39 -45 -40 -29 -20 -29 -25 -3 -6 -19 -11 -27 -21 -21 -16 -12 -6 -1 -1 0 -8
0 0 0 0 0 0 0 0 -17 0 0 0 0 0 -47 -117 -117 -113 -104 -107 -98 -111 -131 -135 -165 -134 -73 -71 -37 -1 -4 -4 -11 -23 -39 -12 -2 -1 -17 -18 -6 -11 -11 -2 0 0 -17 -34 -24
0 0 0 0 0 0 0 0 0 0 0 0 0 0 0 -64 -49 -54 -62 -66 -62 -77 -84 -95 -123 -107 -84 -90 -56 -51 -97 -10 -1 -10 -21 -5 -2 -4 -4 -12 -14 -15 -10 -6 0 -1 -26 -40 -54
Wind_Speed
16 15 14 14 17 20 21 26 7 5 15 22 25 12 4 13 11 10 25 27 29 29 27 26 22 13 11 9 18 16 14 10 6 8 7 8 10 7 6 5 5 9 8 14 13 12 10 11 11
16 14 16 13 11 18 21 6 14 15 25 25 25 20 20 24 14 24 29 29 31 29 28 27 25 11 9 8 8 7 11 7 8 8 5 7 9 5 5 4 2 10 11 16 13 15 14 13 11
18 14 13 14 15 19 20 10 22 24 17 18 21 20 20 19 20 28 27 32 30 29 28 27 27 15 9 5 5 8 7 7 5 10 12 4 5 3 5 7 5 10 12 14 15 15 15 14 12
15 14 13 15 23 21 6 21 22 18 20 20 21 24 25 15 26 24 31 32 30 29 28 28 28 25 14 5 5 4 6 5 3 11 13 15 28 3 6 9 7 11 12 14 14 14 15 15 14
13 13 15 9 20 16 19 17 14 21 21 15 13 22 25 24 24 29 30 30 29 29 26 28 29 30 18 6 3 9 12 3 3 10 14 26 29 29 18 11 12 12 15 17 14 15 14 15 14
14 15 18 24 20 23 16 7 11 19 21 19 22 23 23 23 26 29 29 29 29 29 28 26 28 29 28 12 11 21 29 26 24 21 26 25 29 28 23 18 18 15 18 17 16 18 16 16 18
14 15 21 19 23 19 11 7 8 10 16 20 20 21 21 21 25 29 29 29 29 30 29 26 25 26 27 31 29 29 29 28 26 26 27 24 26 27 25 24 24 22 18 17 15 17 18 19 20
14 15 19 17 15 18 9 9 9 11 14 17 14 17 17 20 25 28 28 29 29 31 30 28 25 25 26 28 28 29 30 28 29 28 25 23 24 25 26 22 23 18 17 17 13 16 19 19 18
14 16 17 15 13 10 8 7 12 15 13 11 11 12 15 22 26 27 27 27 29 30 31 28 26 25 25 27 27 27 29 29 28 28 27 24 23 26 25 22 10 22 19 16 14 16 17 17 17
13 13 14 14 11 10 9 8 7 9 6 8 11 17 19 23 24 26 27 27 28 30 31 29 28 26 24 26 25 27 25 28 28 28 27 26 20 23 25 14 16 20 20 19 18 16 12 23 14
13 11 12 11 12 12 13 11 8 8 8 20 9 13 16 20 22 24 26 26 27 29 30 29 28 27 26 26 24 27 27 29 29 14 15 21 21 22 21 16 22 19 21 23 22 15 24 27 23
10 10 9 11 13 13 11 15 13 12 11 12 7 12 16 19 20 23 25 26 27 28 28 28 28 27 27 25 26 24 27 24 15 12 14 5 22 25 23 24 19 23 20 23 24 16 26 19 24
9 8 7 9 14 14 15 14 13 14 13 12 10 12 15 17 21 22 24 25 26 27 27 27 27 27 27 27 26 28 27 19 8 7 4 2 15 20 26 16 14 23 24 15 22 15 17 23 25
13 6 9 8 9 9 10 11 11 10 10 15 13 13 15 15 19 20 22 24 26 26 26 26 27 26 26 26 26 24 21 3 10 5 3 5 14 8 6 6 23 17 23 9 24 18 19 24 25
7 7 11 16 15 14 10 12 14 9 10 12 11 13 13 14 14 15 20 21 23 26 25 25 26 27 26 25 26 25 21 20 8 3 5 2 13 12 19 17 12 17 13 19 23 18 18 20 23
10 12 13 17 15 14 11 17 16 8 10 16 19 18 13 9 9 9 11 15 16 21 25 25 25 26 26 25 24 24 23 21 22 12 2 8 7 11 14 15 12 13 15 14 15 17 20 22 20
12 11 12 14 13 12 12 9 5 9 9 3 21 22 14 9 7 5 9 14 16 19 21 24 25 25 25 24 23 23 23 25 21 21 17 7 12 13 15 17 16 14 16 16 16 18 18 18 23
19 17 16 13 16 12 13 14 14 13 14 20 20 19 15 9 7 5 7 11 12 15 17 19 21 23 23 22 22 22 22 23 24 22 17 17 17 15 16 19 21 14 16 17 20 21 20 22 20
20 18 16 16 17 14 19 19 18 18 19 21 22 20 17 13 10 5 2 2 4 7 4 13 16 19 20 21 21 22 21 21 22 22 20 19 19 17 12 21 13 15 16 18 17 21 22 23 22
16 18 16 15 15 13 18 15 17 16 17 19 21 21 21 16 13 9 8 6 5 3 5 9 5 10 16 17 25 17 25 21 19 19 21 22 21 24 28 26 13 6 13 16 19 20 24 22 19
12 15 18 18 17 12 16 10 15 16 15 16 19 20 20 19 16 14 12 14 13 7 6 7 9 14 8 18 31 24 34 28 20 21 21 23 23 23 24 24 28 15 19 8 6 10 18 26 23
15 16 15 14 15 18 18 17 12 14 13 13 15 17 18 18 17 16 14 13 13 15 18 14 13 17 21 13 10 10 10 31 12 19 23 21 24 25 24 23 22 26 19 20 7 5 11 22 29
17 18 17 15 12 16 9 14 14 12 12 13 14 16 17 18 18 17 16 16 17 18 19 21 18 16 21 18 19 17 29 22 28 10 14 21 17 23 25 25 23 21 20 14 16 11 5 7 14
16 15 13 12 12 15 16 14 17 15 16 12 13 15 17 19 18 18 17 17 19 21 23 24 25 25 26 21 19 16 21 17 23 13 20 13 16 16 21 23 24 20 20 19 15 15 13 10 5
15 23 22 19 16 22 18 19 12 19 14 12 14 15 18 19 19 20 21 22 22 24 25 26 27 28 30 30 28 21 20 24 22 24 16 13 11 15 16 17 20 21 19 18 15 13 11 9 8
19 23 23 27 27 26 18 20 17 16 13 12 15 15 17 19 21 23 24 25 25 26 27 28 28 30 32 35 36 31 26 29 30 27 23 17 17 16 16 13 19 23 19 18 15 14 12 10 8
18 21 22 23 18 22 18 17 15 13 11 14 16 17 19 21 23 24 27 27 29 29 30 30 29 30 32 34 33 32 33 33 33 33 26 24 22 19 15 14 14 18 19 17 15 16 13 11 10
19 18 20 16 25 25 20 21 17 14 15 18 20 22 22 22 25 27 29 30 31 32 31 31 32 33 33 32 31 30 32 36 37 37 33 27 23 21 22 17 14 13 15 16 15 15 15 13 11
16 15 17 22 22 27 28 21 17 18 23 24 25 27 25 24 25 27 31 34 33 32 32 32 33 33 32 31 31 31 30 32 36 36 40 36 26 24 21 20 18 15 14 14 15 16 14 13 14
18 19 18 25 24 20 24 24 23 20 22 28 28 28 24 24 26 28 31 33 33 33 32 31 32 32 32 31 31 31 31 35 36 36 37 37 31 28 24 23 22 18 15 14 15 15 15 15 15
Wind_Direction
143 180 160 148 126 108 17 25 136 11 102 94 89 129 204 139 153 333 117 109 112 110 108 111 103 88 92 101 99 91 90 94 148 169 120 107 98 163 131 131 102 196 202 197 199 201 203 196 192
142 189 134 167 167 19 18 125 47 92 88 91 86 99 101 49 139 97 110 115 118 109 110 108 107 94 95 99 93 95 93 102 180 177 141 104 96 137 176 168 117 208 209 201 211 202 203 204 207
124 158 152 190 157 27 12 353 96 84 107 100 93 97 101 106 118 107 119 122 117 114 111 105 111 96 95 118 113 92 97 102 178 196 198 128 180 113 205 211 219 218 218 212 213 212 211 210 213
120 130 145 161 111 109 252 91 84 97 93 91 95 81 88 129 112 115 119 124 119 119 110 109 112 108 97 114 111 167 103 110 169 207 207 206 180 90 228 225 238 227 226 219 221 223 217 211 214
156 151 148 88 78 358 109 108 108 86 82 109 121 93 86 106 112 109 120 125 124 124 114 118 118 119 106 118 166 206 213 128 104 216 214 187 173 168 214 239 235 236 224 218 224 222 224 217 219
144 147 127 44 51 94 79 152 127 89 79 102 90 82 92 111 112 117 123 128 130 127 123 121 127 125 121 210 213 199 179 189 193 204 189 193 170 177 203 221 224 233 223 222 227 215 222 219 209
147 141 116 125 74 84 151 171 144 123 92 80 94 81 98 106 121 122 125 132 136 140 138 128 131 135 135 166 185 185 185 189 195 194 192 204 190 191 198 208 204 217 231 232 238 223 219 212 206
154 148 119 120 125 99 150 151 134 126 108 90 108 95 98 111 124 128 128 134 141 151 149 143 138 139 145 153 156 186 184 190 187 188 199 208 204 199 186 216 216 231 235 233 245 231 217 215 220
144 142 131 124 121 152 187 155 119 95 106 107 118 119 114 110 124 130 133 135 144 153 155 151 144 144 146 154 154 154 185 193 193 187 191 210 212 176 163 208 252 219 230 238 245 239 232 230 233
140 147 136 139 171 182 199 178 185 150 161 112 109 80 99 115 124 133 139 140 146 154 158 159 156 150 144 152 148 161 154 175 198 177 203 206 232 218 202 252 242 227 230 233 237 246 262 213 243
106 156 127 168 206 209 216 218 194 176 184 343 141 98 106 124 128 138 145 148 148 151 158 161 160 157 154 159 149 164 169 179 192 130 249 238 235 227 229 246 225 237 230 221 230 255 220 206 228
145 120 169 200 213 214 203 232 227 225 216 233 153 137 120 135 137 143 148 151 149 150 154 158 158 157 162 153 161 155 167 231 258 134 135 90 231 223 231 221 241 227 238 224 218 254 216 247 233
149 166 163 203 225 221 222 216 221 229 212 204 176 132 127 141 154 153 150 152 151 148 151 153 153 155 161 164 164 179 173 146 168 283 124 121 140 165 179 198 265 230 227 245 235 263 259 241 236
37 159 206 198 187 182 175 181 129 143 221 221 189 155 146 145 154 149 148 150 154 150 148 149 154 154 158 163 165 161 154 97 277 293 299 266 267 283 296 305 242 260 235 282 230 259 258 246 245
137 168 108 71 86 88 157 142 113 186 190 173 183 31 136 149 138 145 152 147 148 152 147 149 154 159 161 161 166 168 154 157 130 289 287 250 269 274 260 265 278 265 277 255 242 264 266 266 257
135 101 99 56 68 76 122 74 68 188 158 249 266 335 4 60 121 130 137 142 139 146 152 153 156 161 162 163 163 169 168 162 165 144 120 277 271 276 272 272 279 279 272 275 272 272 265 262 271
80 92 70 59 63 74 82 78 163 208 115 293 273 294 343 5 51 110 134 143 143 148 152 156 158 163 166 164 166 167 171 177 169 167 160 269 267 269 271 269 273 275 273 275 275 274 275 278 269
338 7 26 47 38 64 55 48 50 55 51 7 352 329 340 2 6 93 139 144 151 149 150 157 161 164 165 166 168 171 171 175 179 174 165 163 171 266 268 268 265 275 275 277 271 271 276 276 283
332 352 12 23 29 47 27 38 47 54 35 25 13 4 357 353 338 339 304 197 170 147 188 155 165 167 167 170 170 175 173 174 176 178 175 172 171 169 265 265 272 272 275 278 281 276 277 278 283
344 343 3 16 32 42 23 36 46 51 47 32 22 16 17 17 4 337 307 284 274 216 177 168 205 178 179 178 193 178 188 181 175 175 177 180 178 181 187 186 178 231 276 278 279 280 276 284 288
357 345 346 354 13 37 20 47 42 47 51 38 27 29 19 15 14 354 321 296 293 279 265 269 254 270 240 270 253 262 224 201 183 181 180 182 182 181 183 183 193 176 183 197 236 282 284 278 285
342 356 354 2 8 4 15 10 35 40 39 45 38 24 17 13 6 2 357 323 309 304 295 287 281 280 276 267 244 217 249 201 206 181 184 179 183 184 183 182 182 191 182 188 197 253 290 285 278
346 355 356 1 3 356 12 5 9 26 22 31 26 14 6 4 354 349 345 337 325 315 309 298 295 290 278 272 266 253 206 201 266 205 183 183 177 183 185 184 182 183 186 181 185 187 219 281 296
359 4 2 3 359 344 355 358 355 6 7 17 19 10 356 344 343 341 343 338 330 320 311 303 296 288 281 277 265 247 258 237 263 248 265 192 186 184 185 185 186 182 185 189 186 189 194 199 265
358 336 335 336 342 340 356 345 345 352 4 11 5 359 349 344 341 334 328 326 324 319 315 307 297 291 283 279 273 263 254 257 254 259 250 249 239 196 192 190 188 189 189 189 188 189 194 199 214
341 337 332 324 327 330 348 340 350 4 10 10 359 356 349 343 333 328 326 324 322 320 316 310 303 296 290 283 275 271 264 262 262 257 255 245 252 255 261 207 197 197 196 196 194 194 198 201 210
345 337 340 331 331 333 333 345 346 1 2 356 353 349 343 337 334 330 321 317 315 317 317 315 307 302 302 290 281 273 267 262 261 260 255 256 258 260 255 242 214 204 201 201 200 201 202 201 204
337 346 337 343 330 328 339 338 337 356 352 347 343 341 339 335 330 326 319 315 313 313 315 311 307 300 300 299 287 280 272 263 259 259 257 256 257 255 262 252 243 226 210 205 204 203 203 204 205
341 338 340 331 329 324 324 337 353 338 338 335 334 334 332 332 329 326 319 314 311 312 314 311 306 303 299 295 290 287 278 268 260 258 254 257 257 257 252 254 252 243 224 215 210 207 204 202 202
327 327 331 325 326 328 325 324 332 339 338 333 330 330 332 331 330 328 322 316 312 312 314 314 309 306 297 295 292 294 281 268 262 257 257 257 257 258 256 256 254 249 243 233 219 216 209 204 200